Casa Grande, AZ

4:58 AM MST on February 09, 2016 (GMT -0700)
Casa Grande Municipal

Weather History for KCGZ - June, 2013

Change the Weather History Date:

Thursday, June 20, 2013

  Actual Average Record
Temperature  
Mean Temperature 89 °F -  
Max Temperature 105 °F 100 °F 111 °F (2005)
Min Temperature 73 °F 68 °F 66 °F (1998)
Cooling Degree Days 24    
Growing Degree Days 39 (Base 50)    
Moisture  
Dew Point 32 °F    
Average Humidity 14    
Maximum Humidity 22    
Minimum Humidity 10    
Precipitation  
Precipitation 0.00 in - - ()
Sea Level Pressure  
Sea Level Pressure 29.78 in    
Wind  
Wind Speed 5 mph (SSW)    
Max Wind Speed 17 mph    
Max Gust Speed 29 mph    
Visibility 10 miles    
Events      
Averages and records for this station are not official NWS values.
T = Trace of Precipitation, MM = Missing Value Source: NWS Daily Summary

Daily Weather History Graph

Daily Weather History Graph

Search for Another Location

Airport or City:

Trip Planner

Search our weather history database for the weather conditions in past years. The results will help you decide how hot, cold, wet, or windy it might be!

Date:

Astronomy

Jun. 20, 2013 Rise Set
Actual Time 5:18 AM MST 7:38 PM MST
Civil Twilight 4:50 AM MST 8:07 PM MST
Nautical Twilight 4:14 AM MST 8:42 PM MST
Astronomical Twilight 3:36 AM MST 9:20 PM MST
Moon 4:50 PM MST (6/20) 2:41 AM MST (6/20)
Length of Visible Light 15h 17m
Length of Day
14h 19m
Waxing Gibbous, 89% of the Moon is Illuminated
Jun 20
Waxing Gibbous
Jun 23
Full
Jun 29
Last Quarter
Jul 8
New
Jul 15
First Quarter

Hourly Weather History & Observations

Time (MST) Temp. Dew Point Humidity Pressure Visibility Wind Dir Wind Speed Gust Speed Precip Events Conditions
12:15 AM 80.6 °F 28.4 °F 15% 29.74 in 10.0 mi NW 3.5 mph - N/A   Clear
12:35 AM 78.8 °F 26.6 °F 15% 29.75 in 10.0 mi SSE 5.8 mph - N/A   Clear
12:55 AM 78.8 °F 30.2 °F 17% 29.74 in 10.0 mi Calm Calm - N/A   Clear
1:15 AM 75.2 °F 28.4 °F 18% 29.74 in 10.0 mi Calm Calm - N/A   Clear
1:35 AM 75.2 °F 28.4 °F 18% 29.74 in 10.0 mi NNE 3.5 mph - N/A   Clear
1:55 AM 75.2 °F 28.4 °F 18% 29.74 in 10.0 mi Calm Calm - N/A   Clear
2:15 AM 75.2 °F 28.4 °F 18% 29.74 in 10.0 mi Calm Calm - N/A   Clear
2:35 AM 75.2 °F 28.4 °F 18% 29.75 in 10.0 mi South 4.6 mph - N/A   Clear
2:55 AM 73.4 °F 28.4 °F 19% 29.75 in 10.0 mi Calm Calm - N/A   Clear
3:15 AM 75.2 °F 26.6 °F 17% 29.76 in 10.0 mi South 4.6 mph - N/A   Clear
3:35 AM 73.4 °F 28.4 °F 19% 29.76 in 10.0 mi SSW 5.8 mph - N/A   Clear
3:55 AM 75.2 °F 30.2 °F 19% 29.76 in 10.0 mi South 5.8 mph - N/A   Clear
4:15 AM 75.2 °F 32.0 °F 21% 29.76 in 10.0 mi South 6.9 mph - N/A   Clear
4:35 AM 73.4 °F 32.0 °F 22% 29.77 in 10.0 mi South 6.9 mph - N/A   Clear
4:55 AM 75.2 °F 32.0 °F 21% 29.77 in 10.0 mi SSE 6.9 mph - N/A   Clear
5:15 AM 73.4 °F 32.0 °F 22% 29.78 in 10.0 mi SSE 5.8 mph - N/A   Clear
5:35 AM 75.2 °F 30.2 °F 19% 29.79 in 10.0 mi SE 3.5 mph - N/A   Clear
5:55 AM 73.4 °F 30.2 °F 20% 29.80 in 10.0 mi Calm Calm - N/A   Clear
6:15 AM 75.2 °F 30.2 °F 19% 29.80 in 10.0 mi East 4.6 mph - N/A   Clear
6:35 AM 75.2 °F 32.0 °F 21% 29.81 in 9.0 mi ESE 5.8 mph - N/A   Clear
6:55 AM 75.2 °F 33.8 °F 22% 29.82 in 10.0 mi ESE 3.5 mph - N/A   Clear
7:15 AM 78.8 °F 33.8 °F 20% 29.82 in 10.0 mi ESE 5.8 mph - N/A   Clear
7:35 AM 80.6 °F 30.2 °F 16% 29.83 in 10.0 mi SSE 6.9 mph - N/A   Clear
7:55 AM 82.4 °F 30.2 °F 15% 29.83 in 10.0 mi ESE 4.6 mph - N/A   Clear
8:15 AM 84.2 °F 30.2 °F 14% 29.83 in 10.0 mi SSE 5.8 mph - N/A   Clear
8:35 AM 86.0 °F 28.4 °F 12% 29.84 in 10.0 mi SSE 8.1 mph - N/A   Clear
8:55 AM 87.8 °F 28.4 °F 12% 29.84 in 10.0 mi SSE 8.1 mph - N/A   Clear
9:15 AM 89.6 °F 28.4 °F 11% 29.84 in 10.0 mi SSW 5.8 mph - N/A   Clear
9:35 AM 89.6 °F 28.4 °F 11% 29.84 in 10.0 mi South 6.9 mph - N/A   Clear
9:55 AM 91.4 °F 30.2 °F 11% 29.84 in 8.0 mi SSE 4.6 mph - N/A   Clear
10:15 AM 93.2 °F 30.2 °F 11% 29.84 in 10.0 mi SE 4.6 mph - N/A   Clear
10:35 AM 93.2 °F 30.2 °F 11% 29.84 in 10.0 mi West 6.9 mph - N/A   Clear
10:55 AM 95.0 °F 30.2 °F 10% 29.84 in 10.0 mi SW 5.8 mph - N/A   Clear
11:15 AM 96.8 °F 32.0 °F 10% 29.83 in 10.0 mi Calm Calm - N/A   Clear
11:35 AM 96.8 °F 32.0 °F 10% 29.83 in 10.0 mi SW 12.7 mph 18.4 mph N/A   Clear
11:55 AM 96.8 °F 32.0 °F 10% 29.82 in 10.0 mi SW 5.8 mph - N/A   Clear
12:15 PM 98.6 °F 32.0 °F 10% 29.82 in 10.0 mi SSW 8.1 mph - N/A   Clear
12:35 PM 98.6 °F 33.8 °F 10% 29.81 in 10.0 mi ESE 4.6 mph - N/A   Clear
12:55 PM 98.6 °F 33.8 °F 10% 29.81 in 10.0 mi West 6.9 mph - N/A   Clear
1:15 PM 98.6 °F 33.8 °F 10% 29.80 in 10.0 mi NE 6.9 mph - N/A   Clear
1:35 PM 100.4 °F 33.8 °F 10% 29.78 in 10.0 mi East 8.1 mph - N/A   Clear
1:55 PM 100.4 °F 35.6 °F 11% 29.78 in 10.0 mi South 4.6 mph - N/A   Clear
2:15 PM 102.2 °F 35.6 °F 10% 29.77 in 10.0 mi SSW 11.5 mph 18.4 mph N/A   Clear
2:35 PM 104.0 °F 37.4 °F 10% 29.76 in 10.0 mi SSW 17.3 mph 21.9 mph N/A   Clear
2:55 PM 104.0 °F 37.4 °F 10% 29.76 in 10.0 mi SSW 13.8 mph 19.6 mph N/A   Clear
3:15 PM 104.0 °F 37.4 °F 10% 29.75 in 10.0 mi South 13.8 mph - N/A   Clear
3:35 PM 104.0 °F 37.4 °F 10% 29.74 in 10.0 mi SSW 10.4 mph - N/A   Clear
3:55 PM 104.0 °F 37.4 °F 10% 29.74 in 10.0 mi West 8.1 mph 17.3 mph N/A   Clear
4:15 PM 104.0 °F 37.4 °F 10% 29.73 in 10.0 mi WSW 9.2 mph - N/A   Clear
4:35 PM 105.8 °F 37.4 °F 10% 29.72 in 10.0 mi SW 11.5 mph 17.3 mph N/A   Clear
4:55 PM 105.8 °F 37.4 °F 10% 29.72 in 10.0 mi SW 15.0 mph 19.6 mph N/A   Clear
5:15 PM 104.0 °F 37.4 °F 10% 29.71 in 10.0 mi SW 11.5 mph 16.1 mph N/A   Clear
5:35 PM 105.8 °F 37.4 °F 10% 29.71 in 10.0 mi SW 11.5 mph 28.8 mph N/A   Clear
5:55 PM 104.0 °F 37.4 °F 10% 29.71 in 10.0 mi SW 9.2 mph - N/A   Clear
6:15 PM 104.0 °F 37.4 °F 10% 29.71 in 10.0 mi SSW 9.2 mph - N/A   Clear
6:35 PM 102.2 °F 37.4 °F 11% 29.71 in 10.0 mi SW 11.5 mph - N/A   Clear
6:55 PM 102.2 °F 35.6 °F 10% 29.72 in 10.0 mi West 12.7 mph - N/A   Clear
7:15 PM 100.4 °F 35.6 °F 11% 29.72 in 10.0 mi West 8.1 mph - N/A   Clear
7:35 PM 98.6 °F 33.8 °F 10% 29.73 in 10.0 mi West 6.9 mph - N/A   Clear
7:55 PM 96.8 °F 32.0 °F 10% 29.73 in 10.0 mi West 8.1 mph 16.1 mph N/A   Clear
8:15 PM 95.0 °F 30.2 °F 10% 29.74 in 10.0 mi West 11.5 mph - N/A   Clear
8:35 PM 93.2 °F 30.2 °F 11% 29.76 in 10.0 mi WSW 10.4 mph - N/A   Clear
8:55 PM 93.2 °F 30.2 °F 11% 29.76 in 10.0 mi WSW 8.1 mph - N/A   Clear
9:15 PM 89.6 °F 30.2 °F 12% 29.77 in 10.0 mi West 6.9 mph - N/A   Clear
9:35 PM 87.8 °F 30.2 °F 13% 29.78 in 10.0 mi West 4.6 mph - N/A   Clear
9:55 PM 87.8 °F 30.2 °F 13% 29.78 in 10.0 mi West 4.6 mph - N/A   Clear
10:15 PM 84.2 °F 28.4 °F 13% 29.78 in 10.0 mi WNW 5.8 mph - N/A   Clear
10:35 PM 84.2 °F 28.4 °F 13% 29.78 in 10.0 mi WNW 6.9 mph - N/A   Clear
10:55 PM 86.0 °F 28.4 °F 12% 29.78 in 10.0 mi Calm Calm - N/A   Clear
11:15 PM 80.6 °F 26.6 °F 14% 29.79 in 10.0 mi East 3.5 mph - N/A   Clear
11:35 PM 82.4 °F 28.4 °F 14% 29.79 in 10.0 mi Calm Calm - N/A   Clear
11:55 PM 78.8 °F 26.6 °F 15% 29.79 in 10.0 mi Calm Calm - N/A   Clear